Regional Weather Roundup
Issued by NWS

Home | Current Version | Previous Version | Graphics & Text | Print | Product List | Glossary Off
Versions: 1 2 3 4 5 6 7 8 9 10 11 12 13 14 15 16 17 18 19 20 21 22 23 24 25 26 27 28 29 30 31 32 33 34 35 36 37 38 39 40 41 42 43 44 45 46 47 48 49 50

000
ASUS43 KMPX 281110
RWRMN
WEATHER ROUNDUP FOR MINNESOTA
NATIONAL WEATHER SERVICE TWIN CITIES/CHANHASSEN MN
600 AM CDT THU JUL 28 2016


NOTE: "FAIR" INDICATES FEW OR NO CLOUDS BELOW 12,000 FEET WITH NO
SIGNIFICANT WEATHER AND/OR OBSTRUCTIONS TO VISIBILITY. N/A MEANS
CURRENT SKY AND/OR WEATHER CONDITIONS ARE NOT AVAILABLE.

MNZ060>063-068>070-281200-
   Twin Cities Metro

CITY           SKY/WX    TMP DP  RH WIND       PRES   REMARKS
TWIN CITIES    CLOUDY    66  61  84 N9G18     29.99R
ST PAUL        CLOUDY    66  62  87 N8        29.99R
CRYSTAL        CLOUDY    64  59  83 N9        29.99R
BLAINE         CLOUDY    64  63  94 N8        30.00R
LAKEVILLE      CLOUDY    64  64 100 N8        29.98S
EDEN PRAIRIE   CLOUDY    66  62  87 N9        29.98S
LAKEVILLE      CLOUDY    64  64 100 N8        29.98S
SOUTH ST PAUL  CLOUDY    66  63  90 N7        29.98S
LAKE ELMO      CLOUDY    64  63  94 CALM      30.00R
$$
MNZ001>005-007-008-013>017-022>024-027-028-281200-
   Northwest Minnesota

CITY           SKY/WX    TMP DP  RH WIND       PRES   REMARKS
BEMIDJI        MOCLDY    57  54  88 NE3       30.09S
HALLOCK        CLEAR     54  52  94 N5        30.13R
ROSEAU         CLEAR     52  48  87 N3        30.13S
WARROAD        PTCLDY    54  50  87 CALM      30.14R
THIEF RVR FALL CLOUDY    57  54  89 NE8       30.12R
CROOKSTON      CLOUDY    59  55  88 NE6       30.10R
FOSSTON        MOCLDY    55  52  88 CALM      30.11R
DETROIT LAKES  PTCLDY    63  61  94 CALM      30.09R
MOORHEAD       CLOUDY    61  61 100 N3        30.07S
PARK RAPIDS    PTCLDY    59  56  89 CALM      30.08R
MAHNOMEN       CLOUDY    62  60  94 E5        30.08S
$$
MNZ006-009>011-018-025>026-281200-
   North Central Minnesota

CITY           SKY/WX    TMP DP  RH WIND       PRES   REMARKS
BAUDETTE       CLEAR     53  51  93 NW3       30.12R
FLAG ISLAND    MOCLDY    61  52  72 NE7       30.12S
INTL FALLS     CLEAR     55  52  89 NE3       30.10S
WASKISH        PTCLDY    55  54  94 NE5       30.11R
BIG FORK       PTCLDY    54  52  94 CALM      30.10R
LONGVILLE      CLOUDY    57  57 100 CALM      30.07S FOG
GRAND RAPIDS   FOG       57  56  96 CALM      30.09R VSB 1/4
CRANE LAKE     CLEAR     46  46 100 CALM      30.12R
ORR            CLEAR     50  48  93 CALM      30.07S FOG
COOK           CLEAR     50  48  93 CALM      30.09S
WALKER         CLOUDY    58  57  97 CALM      30.09R
$$
MNZ012-019>021-037-281200-
   Northeast Minnesota

CITY           SKY/WX    TMP DP  RH WIND       PRES   REMARKS
DULUTH         CLOUDY    56  54  93 NE6       30.07R
ELY            FOG       55  54  94 CALM      30.09S VSB<1/4
HIBBING        FOG       48  48 100 CALM      30.07S VSB 1/4
EVELETH        CLEAR     51  50  97 CALM      30.09S FOG
DULUTH HARBOR  PTCLDY    63  57  82 NE9       30.06S
TWO HARBORS    CLEAR     59  54  82 N6        30.05S
SILVER BAY     CLEAR     52  50  93 CALM      30.06S
GRAND MARAIS     N/A     63  50  62 N6        30.07R
$$
MNZ029>031-032-039>041-046>048-054>057-064-281200-
   West Central Minnesota

CITY           SKY/WX    TMP DP  RH WIND       PRES   REMARKS
FERGUS FALLS   PTCLDY    64  64 100 CALM      30.08R
WHEATON        PTCLDY    61  61 100 CALM      30.07R
MORRIS         CLOUDY    63  61  94 NE3       30.04R FOG
ALEXANDRIA     MOCLDY    63  60  90 NE7       30.07S
ELBOW LAKE     FAIR      64  62  94 NE3       30.06S
WADENA         CLOUDY    59  59 100 N3        30.07R
GLENWOOD       CLOUDY    61  61 100 NE8       30.06S
APPLETON       CLOUDY    61  57  88 CALM      30.04R FOG
BENSON         MOCLDY    63  57  82 NE5       30.04R
ORTONVILLE     CLOUDY    63  61  94 CALM      30.05R
MADISON        MOCLDY    63  61  94 N3        30.05R
WILLMAR        CLOUDY    64  63  94 E13       30.04R
$$
MNZ033>034-036-042>043-049>051-058-059-281200-
   Central Minnesota

CITY           SKY/WX    TMP DP  RH WIND       PRES   REMARKS
ST CLOUD       CLOUDY    58  58 100 N3        30.03S
SAUK CENTRE    FAIR      60  58  93 N6        30.05F
PAYNESVILLE    CLOUDY    60  60 100 NE6       30.04S
PINE RIVER     MOCLDY    57  57 100 CALM      30.11R FOG
BRAINERD       MOCLDY    61  60  97 NE6       30.07R
STAPLES        PTCLDY    57  57 100 CALM      30.07S
LONG PRAIRIE   FAIR      59  59 100 NW3       30.07S
LITTLE FALLS   PTCLDY    59  55  88 CALM      30.06R
LITCHFIELD     CLOUDY    63  63 100 NE3       30.03S FOG
BUFFALO        CLOUDY    62  59  90 N6        30.02F
MAPLE LAKE     CLOUDY    62  60  96 N5        30.03S
HUTCHINSON     CLOUDY    64  63  94 N5        30.02S
$$
MNZ037-044-045-052-053-281200-
   East Central Minnesota

CITY           SKY/WX    TMP DP  RH WIND       PRES   REMARKS
PRINCETON        N/A     61  57  88 NW6       30.03R
MORA           CLOUDY    55  54  94 CALM      30.05R
CAMBRIDGE      CLOUDY    63  55  77 NE5       30.01R
RUSH CITY      RAIN      59  57  94 NE5       30.03R
MOOSE LAKE     CLOUDY    55  54  94 NE3       30.04R
HINCKLEY       FAIR      55  55 100 N6        30.03S
CLOQUET        CLEAR     55  52  88 CALM      30.07R
MCGREGOR       PTCLDY    55  55 100 CALM      30.07R
$$
MNZ071>073-080-081-089-090-097-098-281200-
   Southwest Minnesota

CITY           SKY/WX    TMP DP  RH WIND       PRES   REMARKS
MONTEVIDEO     CLOUDY    63  61  94 NE5       30.05R
GRANITE FALLS  PTCLDY    64  63  96 N5        30.04R
CANBY          CLOUDY    63  61  92 W5        30.06R
MARSHALL       CLOUDY    60  59  96 NW5       30.04R
REDWOOD FALLS  CLOUDY    64  61  90 VRB5      30.02R
OLIVIA         CLOUDY    61  59  94 NE9       30.01S
PIPESTONE      CLEAR     63  57  82 VRB5      30.03S
WINDOM         CLOUDY    63  61  94 NW5       30.02R
WORTHINGTON    PTCLDY    59  57  93 N6        30.03R
JACKSON        CLOUDY    64  61  88 N5        30.02R
TRACY          CLOUDY    61  60  97 NW5       30.04R
SLAYTON        CLOUDY    58  57  97 N3        30.04S
$$
MNZ065>067-074>077-082>085-091>093-281200-
   South Central Minnesota

CITY           SKY/WX    TMP DP  RH WIND       PRES   REMARKS
MANKATO        CLOUDY    64  59  82 N7        29.99S
NEW ULM        CLOUDY    64  63  94 N9        29.99S
ST JAMES       CLOUDY    61  59  94 CALM      30.01S
FAIRMONT       CLOUDY    63  57  82 N10       29.99R
GLENCOE        CLOUDY    64  64  97 N5        30.00S
FARIBAULT      CLOUDY    66  64  94 N6        29.98S
OWATONNA       CLOUDY    66  63  88 N7        29.98R
WASECA         CLOUDY    63  61  94 N7        30.00S
ALBERT LEA     CLOUDY    66  64  94 N6        29.97S
$$
MNZ078>079-086>088-094>096-281200-
   Southeast Minnesota

CITY           SKY/WX    TMP DP  RH WIND       PRES   REMARKS
ROCHESTER      CLOUDY    66  65  96 N13       29.96S
RED WING       CLOUDY    66  63  88 N7        29.95S
STANTON        CLOUDY    66  63  88 N5        29.96S
DODGE CENTER   CLOUDY    64  63  94 N8        29.97S
WINONA         CLOUDY    70  64  83 N6        29.93S
AUSTIN         CLOUDY    64  63  94 N8        29.96R
PRESTON        CLOUDY    65  64  94 N9        29.94S
$$
ABBREVIATIONS USED IN REMARKS
   TC - TEMPERATURES IN CELSIUS
  WCI - WIND CHILL INDEX
   HX - HEAT INDEX
  VSB - VISIBILITY
$$




USA.gov is the U.S. government's official web portal to all federal, state and local government web resources and services.